Torna al catalogo

HAWK-8A

AttivoMilitareVLEO
NORAD 59443·PAYLOAD·🇺🇸 United States

Lanciato Apr 7, 2024 da Cape Canaveral Space Force Station

Loading…

Prossimi Passaggi (prossime 24 ore)

TLE

AggiornatoSource: Space-Track

Epoca: Sep 14, 2026, 04:44 UTC

1 59443U 24066B   26257.19770701  .00001010  00000-0  99896-4 0  9994
2 59443  45.6029 176.3635 0002445 181.0723 179.0153 14.99413264133197

Traccia HAWK-8A in tempo reale con AllMySat

Download on the App Store